FW8253 Weather Reports


time (UTC)temp
C
wind
direction
speed
KPH
gust
KPH
rain 1hr
cm
rain 24hr
cm
rain mn
cm
humidity
%
barometer
mb
20260509043734 16 177 0.0 0.0 0.00 0.00 0.00 97 1015.6
20260509043230 16 177 0.0 0.0 0.00 0.00 0.00 97 1015.8
20260509042726 16 177 0.0 0.0 0.00 0.00 0.00 97 1016.0
20260509042222 16 176 0.0 0.0 0.00 0.00 0.00 97 1016.4
20260509041719 16 177 0.0 0.0 0.00 0.00 0.00 97 1016.6
20260509041217 16 176 0.0 0.0 0.00 0.00 0.00 97 1016.4
20260509040715 16 176 0.0 0.0 0.00 0.00 0.00 97 1016.4
20260509040212 16 176 0.0 0.0 0.00 0.00 0.00 97 1016.3
20260509035708 16 176 0.0 0.0 0.00 0.00 0.00 97 1016.4
20260509035205 16 176 0.0 0.0 0.00 0.00 0.00 97 1016.4
20260509034702 16 176 0.0 0.0 0.00 0.00 0.00 96 1016.4
20260509034200 16 176 0.0 0.0 0.00 0.00 0.00 96 1016.4
20260509033657 16 176 0.0 0.0 0.00 0.00 0.00 96 1016.2
20260509033153 16 176 0.0 0.0 0.00 0.00 0.00 96 1016.5
20260509032651 16 176 0.0 0.0 0.00 0.00 0.00 96 1016.5
20260509032147 16 176 0.0 0.0 0.00 0.00 0.00 96 1016.5
20260509031645 16 176 0.0 0.0 0.00 0.00 0.00 96 1016.2
20260509031142 16 176 0.0 0.0 0.00 0.00 0.00 97 1016.3
20260509030641 16 176 0.0 0.0 0.00 0.00 0.00 96 1016.1
20260509030138 16 176 0.0 0.0 0.00 0.00 0.00 96 1016.2
20260509025633 16 176 0.0 0.0 0.00 0.00 0.00 96 1015.9
20260509025129 16 176 0.0 0.0 0.00 0.00 0.00 96 1016.2
20260509024625 16 176 0.0 0.0 0.00 0.00 0.00 96 1016.1
20260509024121 16 176 0.0 0.0 0.00 0.00 0.00 96 1016.1
20260509023620 16 176 0.0 0.0 0.00 0.00 0.00 96 1016.3
20260509023116 16 176 0.0 0.0 0.00 0.00 0.00 96 1016.6
20260509022612 16 176 0.0 0.0 0.00 0.00 0.00 96 1016.5
20260509022110 17 176 0.0 0.0 0.00 0.00 0.00 96 1016.4
20260509021607 17 176 0.0 0.0 0.00 0.00 0.00 96 1016.5
20260509021104 17 177 0.0 0.0 0.00 0.00 0.00 96 1016.5
20260509020603 17 176 0.0 0.0 0.00 0.00 0.00 96 1016.4
20260509020058 17 176 0.0 0.0 0.00 0.00 0.00 96 1016.6
20260509015558 17 177 0.0 0.0 0.00 0.00 0.00 96 1016.6
20260509015055 17 176 0.0 0.0 0.00 0.00 0.00 96 1016.3
20260509014551 17 177 0.0 0.0 0.00 0.00 0.00 96 1016.5
20260509014048 17 177 0.0 0.0 0.00 0.00 0.00 96 1016.4
20260509013545 17 176 0.0 0.0 0.00 0.00 0.00 96 1016.2
20260509013040 17 176 0.0 0.0 0.00 0.00 0.00 96 1016.2
20260509012537 17 177 0.0 0.0 0.00 0.00 0.00 95 1016.7
20260509012034 17 177 0.0 0.0 0.00 0.00 0.00 95 1016.5
20260509011532 17 176 0.0 0.0 0.00 0.00 0.00 95 1016.2
20260509011029 17 177 0.0 0.0 0.00 0.00 0.00 95 1016.3
20260509010527 17 176 0.0 0.0 0.00 0.00 0.00 94 1016.4
20260509010023 18 176 0.0 0.0 0.00 0.00 0.00 94 1016.1
20260509005521 18 176 0.0 0.0 0.00 0.00 0.00 94 1016.1
20260509005021 18 176 0.0 0.0 0.00 0.00 0.00 94 1016.1
20260509004518 18 176 0.0 0.0 0.00 0.00 0.00 94 1016.2
20260509004015 18 176 0.0 0.0 0.00 0.00 0.00 93 1016.1
20260509003514 18 193 0.0 0.0 0.00 0.00 0.00 93 1016.1
20260509003010 18 192 0.0 0.0 0.00 0.00 0.00 92 1016.0
20260509002508 18 192 0.0 0.0 0.00 0.00 0.00 92 1016.1
20260509002005 18 192 0.0 0.0 0.00 0.00 0.00 91 1015.9
20260509001502 18 192 0.0 0.0 0.00 0.00 0.00 90 1015.9
20260509000958 18 197 0.0 0.0 0.00 0.00 0.00 90 1015.7
20260509000457 19 209 0.0 0.0 0.00 0.00 0.00 89 1015.7
20260508235952 19 209 0.0 0.0 0.00 0.00 0.00 88 1015.6
20260508235450 19 210 0.0 0.0 0.00 0.00 0.00 88 1015.3
20260508234946 19 209 0.0 0.0 0.00 0.00 0.00 87 1015.6
20260508234443 19 168 0.0 0.0 0.00 0.00 0.00 87 1015.4
20260508233941 19 235 0.0 0.0 0.00 0.00 0.00 85 1015.5
20260508233440 19 235 0.0 0.0 0.00 0.00 0.00 86 1015.5
20260508232936 20 237 0.0 0.0 0.00 0.00 0.00 86 1015.5
20260508232433 20 243 0.0 0.0 0.00 0.00 0.00 83 1015.5
20260508231931 20 238 0.0 0.0 0.00 0.00 0.00 82 1015.5
20260508231428 20 238 0.0 0.0 0.00 0.00 0.00 83 1015.4
20260508230925 20 238 0.0 0.0 0.00 0.00 0.00 81 1015.3
20260508230421 20 238 0.0 0.0 0.00 0.00 0.00 83 1015.4
20260508225918 20 238 0.0 0.0 0.00 0.00 0.00 82 1015.3
20260508225415 20 238 0.0 0.0 0.00 0.00 0.00 77 1015.2
20260508224913 20 238 0.0 0.0 0.00 0.00 0.00 79 1015.4
20260508224410 20 238 0.0 0.0 0.00 0.00 0.00 83 1015.5
20260508223907 21 238 0.0 0.0 0.00 0.00 0.00 81 1015.4
20260508223405 21 238 0.0 0.0 0.00 0.00 0.00 76 1015.5
20260508222902 21 238 0.0 0.0 0.00 0.00 0.00 82 1015.5
20260508222359 21 238 0.0 0.0 0.00 0.00 0.00 79 1015.6
20260508221856 21 238 0.0 0.0 0.00 0.00 0.00 78 1015.6
20260508221351 21 238 0.0 0.0 0.00 0.00 0.00 77 1015.6
20260508220848 21 238 0.0 0.0 0.00 0.00 0.00 78 1015.7
20260508220344 21 238 0.0 0.0 0.00 0.00 0.00 71 1015.7
20260508215841 21 238 0.0 0.0 0.00 0.00 0.00 74 1015.5
20260508215338 21 238 0.0 0.0 0.00 0.00 0.00 75 1015.6
20260508214835 21 238 0.0 0.0 0.00 0.00 0.00 76 1015.5
20260508214332 21 238 0.0 0.0 0.00 0.00 0.00 73 1015.7
20260508213829 21 238 0.0 0.0 0.00 0.00 0.00 73 1015.9
20260508213325 21 238 0.0 0.0 0.00 0.00 0.00 73 1015.7
20260508212821 21 238 0.0 0.0 0.00 0.00 0.00 73 1015.6
20260508212318 22 238 0.0 0.0 0.00 0.00 0.00 73 1015.6
20260508211814 22 238 0.0 0.0 0.00 0.00 0.00 72 1015.5
20260508211309 22 237 0.0 0.0 0.00 0.00 0.00 69 1015.5
20260508210807 22 237 0.0 0.0 0.00 0.00 0.00 67 1015.5
20260508210304 22 237 0.0 0.0 0.00 0.00 0.00 65 1015.4
20260508205801 22 240 0.0 0.0 0.00 0.00 0.00 62 1015.6
20260508205257 22 229 0.0 0.0 0.00 0.00 0.00 60 1015.3
20260508204753 22 226 0.0 0.0 0.00 0.00 0.00 64 1015.5
20260508204250 23 239 0.0 0.0 0.00 0.00 0.00 64 1015.6
20260508203746 23 221 0.0 0.0 0.00 0.00 0.00 63 1015.9
20260508203243 23 220 0.0 0.0 0.00 0.00 0.00 61 1015.8
20260508202738 23 213 0.0 0.0 0.00 0.00 0.00 61 1016.0
20260508202236 23 213 0.0 0.0 0.00 0.00 0.00 58 1016.0
20260508201733 23 212 0.0 0.0 0.00 0.00 0.00 60 1015.8
20260508201229 23 218 0.0 0.0 0.00 0.00 0.00 60 1016.1
20260508200726 23 232 0.0 0.0 0.00 0.00 0.00 57 1016.2
20260508200222 24 209 0.0 0.0 0.00 0.00 0.00 57 1016.0
20260508195719 23 228 0.0 0.0 0.00 0.00 0.00 59 1016.2
20260508195215 24 240 0.0 0.0 0.00 0.00 0.00 55 1016.4
20260508194712 24 50 0.0 0.0 0.00 0.00 0.00 53 1016.2
20260508194209 25 239 0.0 0.0 0.00 0.00 0.00 52 1016.0
20260508193706 24 214 0.0 0.0 0.00 0.00 0.00 56 1016.2
20260508193203 25 225 0.0 0.0 0.00 0.00 0.00 56 1016.2
20260508192659 24 23 0.0 0.0 0.00 0.00 0.00 54 1016.0
20260508192156 24 200 0.0 0.0 0.00 0.00 0.00 55 1016.2
20260508191654 23 251 0.0 0.0 0.00 0.00 0.00 62 1016.2
20260508191150 23 201 0.0 0.0 0.00 0.00 0.00 54 1016.5
20260508190647 22 225 0.0 0.0 0.00 0.00 0.00 64 1016.6
20260508190144 23 228 0.0 0.0 0.00 0.00 0.00 60 1016.4
20260508185640 23 199 0.0 0.0 0.00 0.00 0.00 55 1016.8
20260508185138 22 236 0.0 0.0 0.00 0.00 0.00 60 1016.8
20260508184635 24 238 0.0 0.0 0.00 0.00 0.00 54 1017.0
20260508184132 25 187 0.0 0.0 0.00 0.00 0.00 50 1017.2
20260508183629 24 259 0.0 0.0 0.00 0.00 0.00 50 1017.1
20260508183125 25 226 0.0 0.0 0.00 0.00 0.00 55 1016.9
20260508182621 24 223 0.0 0.0 0.00 0.00 0.00 55 1017.2
20260508182118 24 234 0.0 0.0 0.00 0.00 0.00 53 1017.4
20260508181613 23 259 0.0 0.0 0.00 0.00 0.00 53 1017.6
20260508181111 23 228 0.0 0.0 0.00 0.00 0.00 58 1017.7
20260508180607 23 208 0.0 0.0 0.00 0.00 0.00 53 1017.4
20260508180103 23 209 0.0 0.0 0.00 0.00 0.00 56 1017.7
20260508175600 23 188 0.0 0.0 0.00 0.00 0.00 57 1017.8
20260508175058 23 53 0.0 0.0 0.00 0.00 0.00 53 1017.6
20260508174555 22 230 0.0 0.0 0.00 0.00 0.00 54 1017.9
20260508174052 22 178 0.0 0.0 0.00 0.00 0.00 60 1017.7
20260508173549 22 246 0.0 0.0 0.00 0.00 0.00 55 1017.6
20260508173045 22 208 0.0 0.0 0.00 0.00 0.00 55 1017.8
20260508172542 23 204 0.0 0.0 0.00 0.00 0.00 53 1017.9
20260508172039 23 151 0.0 0.0 0.00 0.00 0.00 53 1018.1
20260508171535 23 207 0.0 0.0 0.00 0.00 0.00 53 1018.1
20260508171031 23 83 0.0 0.0 0.00 0.00 0.00 53 1018.2
20260508170529 23 294 0.0 0.0 0.00 0.00 0.00 53 1018.0
20260508170026 23 132 0.0 0.0 0.00 0.00 0.00 55 1018.2
20260508165523 22 229 0.0 0.0 0.00 0.00 0.00 56 1018.4
20260508165020 23 9 0.0 0.0 0.00 0.00 0.00 52 1018.5
20260508164517 23 224 0.0 0.0 0.00 0.00 0.00 60 1018.5
20260508164013 22 218 0.0 0.0 0.00 0.00 0.00 62 1018.7
20260508163511 22 223 0.0 0.0 0.00 0.00 0.00 56 1018.7
20260508163007 21 84 0.0 0.0 0.00 0.00 0.00 56 1018.6
20260508162504 22 171 0.0 0.0 0.00 0.00 0.00 55 1018.8
20260508162001 22 251 0.0 0.0 0.00 0.00 0.00 55 1018.6
20260508161458 22 224 0.0 0.0 0.00 0.00 0.00 57 1018.9
20260508160955 22 317 0.0 0.0 0.00 0.00 0.00 59 1018.7
20260508160454 22 230 0.0 0.0 0.00 0.00 0.00 56 1018.9
20260508155950 22 117 0.0 0.0 0.00 0.00 0.00 56 1018.7
20260508155447 22 173 0.0 0.0 0.00 0.00 0.00 56 1018.7
20260508154944 22 220 0.0 0.0 0.00 0.00 0.00 56 1018.9
20260508154442 22 180 0.0 0.0 0.00 0.00 0.00 51 1018.9
20260508153938 22 221 0.0 0.0 0.00 0.00 0.00 51 1019.1
20260508153435 22 155 0.0 0.0 0.00 0.00 0.00 53 1019.0
20260508152931 22 179 0.0 0.0 0.00 0.00 0.00 53 1019.0
20260508152428 22 28 0.0 0.0 0.00 0.00 0.00 54 1019.0
20260508151924 22 190 0.0 0.0 0.00 0.00 0.00 56 1019.4
20260508151421 22 186 0.0 0.0 0.00 0.00 0.00 55 1019.6
20260508150918 22 210 0.0 0.0 0.00 0.00 0.00 55 1019.5
20260508150414 22 137 0.0 0.0 0.00 0.00 0.00 55 1019.5
20260508145910 22 195 0.0 0.0 0.00 0.00 0.00 57 1019.5
20260508145407 21 219 0.0 0.0 0.00 0.00 0.00 60 1019.5
20260508144904 21 124 0.0 0.0 0.00 0.00 0.00 59 1019.7
20260508144402 21 224 0.0 0.0 0.00 0.00 0.00 63 1019.4
20260508143859 21 202 0.0 0.0 0.00 0.00 0.00 59 1019.6
20260508143356 21 28 0.0 0.0 0.00 0.00 0.00 57 1019.9
20260508142852 20 244 0.0 0.0 0.00 0.00 0.00 62 1019.5
20260508142349 20 195 0.0 0.0 0.00 0.00 0.00 60 1019.6
20260508141846 20 213 0.0 0.0 0.00 0.00 0.00 66 1019.4
20260508141343 20 21 0.0 0.0 0.00 0.00 0.00 63 1019.8
20260508140841 20 22 0.0 0.0 0.00 0.00 0.00 63 1019.7
20260508140337 20 109 0.0 0.0 0.00 0.00 0.00 62 1019.7
20260508135833 20 8 0.0 0.0 0.00 0.00 0.00 65 1019.6
20260508135329 20 153 0.0 0.0 0.00 0.00 0.00 62 1019.7
20260508134826 20 47 0.0 0.0 0.00 0.00 0.00 66 1019.5
20260508134322 20 184 0.0 0.0 0.00 0.00 0.00 64 1019.6
20260508133819 19 227 0.0 0.0 0.00 0.00 0.00 68 1019.6
20260508133317 20 115 0.0 0.0 0.00 0.00 0.00 67 1019.6
20260508132814 19 129 0.0 0.0 0.00 0.00 0.00 67 1019.5
20260508132312 19 151 0.0 0.0 0.00 0.00 0.00 69 1019.4
20260508131808 18 253 0.0 0.0 0.00 0.00 0.00 75 1019.1
20260508131304 18 346 0.0 0.0 0.00 0.00 0.00 73 1019.3
20260508130800 18 289 0.0 0.0 0.00 0.00 0.00 74 1019.1
20260508130258 17 3 0.0 0.0 0.00 0.00 0.00 79 1019.0
20260508125754 17 182 0.0 0.0 0.00 0.00 0.00 76 1018.9
20260508125250 17 73 0.0 0.0 0.00 0.00 0.00 81 1018.9
20260508124749 16 257 0.0 0.0 0.00 0.00 0.00 84 1018.7
20260508124245 16 250 0.0 0.0 0.00 0.00 0.00 85 1018.8
20260508123743 15 17 0.0 0.0 0.00 0.00 0.00 89 1019.0
20260508123241 15 250 0.0 0.0 0.00 0.00 0.00 95 1018.8
20260508122737 15 232 0.0 0.0 0.00 0.00 0.00 99 1018.9
20260508122234 15 270 0.0 0.0 0.00 0.00 0.00 99 1018.8
20260508121731 15 232 0.0 0.0 0.00 0.00 0.00 99 1018.9
20260508121230 14 233 0.0 0.0 0.00 0.00 0.00 99 1018.8
20260508120726 14 233 0.0 0.0 0.00 0.00 0.00 99 1018.4
20260508120225 13 232 0.0 0.0 0.00 0.00 0.00 99 1018.5
20260508115722 13 227 0.0 0.0 0.00 0.00 0.00 99 1018.5
20260508115219 13 236 0.0 0.0 0.00 0.00 0.00 99 1018.2
20260508114716 13 237 0.0 0.0 0.00 0.00 0.00 99 1018.3
20260508114212 13 227 0.0 0.0 0.00 0.00 0.00 99 1018.0
20260508113709 12 231 0.0 0.0 0.00 0.00 0.00 99 1018.1
20260508113208 12 235 0.0 0.0 0.00 0.00 0.00 99 1017.9
20260508112703 12 236 0.0 0.0 0.00 0.00 0.00 99 1017.8
20260508112200 12 193 0.0 0.0 0.00 0.00 0.00 99 1017.4
20260508111657 12 193 0.0 0.0 0.00 0.00 0.00 99 1017.6
20260508111155 12 192 0.0 0.0 0.00 0.00 0.00 99 1017.5
20260508110652 12 192 0.0 0.0 0.00 0.00 0.00 99 1017.3
20260508110148 12 181 0.0 0.0 0.00 0.00 0.00 99 1017.4
20260508105643 12 195 0.0 0.0 0.00 0.00 0.00 99 1017.2
20260508105140 12 195 0.0 0.0 0.00 0.00 0.00 99 1017.0
20260508104638 12 195 0.0 0.0 0.00 0.00 0.00 99 1017.1
20260508104135 12 195 0.0 0.0 0.00 0.00 0.00 99 1017.0
20260508103632 12 196 0.0 0.0 0.00 0.00 0.00 99 1016.8
20260508103129 12 195 0.0 0.0 0.00 0.00 0.00 99 1016.7
20260508102626 12 195 0.0 0.0 0.00 0.00 0.00 99 1016.8
20260508102124 12 195 0.0 0.0 0.00 0.00 0.00 99 1016.7
20260508101621 12 195 0.0 0.0 0.00 0.00 0.00 99 1016.9
20260508101118 12 196 0.0 0.0 0.00 0.00 0.00 99 1016.7
20260508100616 12 196 0.0 0.0 0.00 0.00 0.00 99 1016.5
20260508100114 12 196 0.0 0.0 0.00 0.00 0.00 99 1016.4
20260508095610 12 196 0.0 0.0 0.00 0.00 0.00 99 1016.3
20260508095107 12 195 0.0 0.0 0.00 0.00 0.00 99 1016.3
20260508094604 12 195 0.0 0.0 0.00 0.00 0.00 99 1016.3
20260508094101 12 196 0.0 0.0 0.00 0.00 0.00 99 1016.2
20260508093558 12 195 0.0 0.0 0.00 0.00 0.00 99 1016.3
20260508093056 12 196 0.0 0.0 0.00 0.00 0.00 99 1016.0
20260508092553 12 196 0.0 0.0 0.00 0.00 0.00 99 1016.0
20260508092052 12 196 0.0 0.0 0.00 0.00 0.00 99 1015.8
20260508091549 12 195 0.0 0.0 0.00 0.00 0.00 99 1016.0
20260508091045 12 196 0.0 0.0 0.00 0.00 0.00 99 1016.0
20260508090543 12 195 0.0 0.0 0.00 0.00 0.00 99 1015.8
20260508090039 12 195 0.0 0.0 0.00 0.00 0.00 99 1015.4
20260508085536 12 195 0.0 0.0 0.00 0.00 0.00 99 1015.6
20260508085033 12 195 0.0 0.0 0.00 0.00 0.00 99 1015.5
20260508084530 12 196 0.0 0.0 0.00 0.00 0.00 98 1015.7
20260508084027 12 195 0.0 0.0 0.00 0.00 0.00 98 1015.5
20260508083525 12 195 0.0 0.0 0.00 0.00 0.00 98 1015.2
20260508083021 12 195 0.0 0.0 0.00 0.00 0.00 98 1015.3
20260508082517 13 195 0.0 0.0 0.00 0.00 0.00 97 1015.5
20260508082015 13 195 0.0 0.0 0.00 0.00 0.00 97 1015.8
20260508081512 13 195 0.0 0.0 0.00 0.00 0.00 97 1015.4
20260508081008 13 195 0.0 0.0 0.00 0.00 0.00 96 1015.5
20260508080506 13 195 0.0 0.0 0.00 0.00 0.00 96 1015.4
20260508080003 13 195 0.0 0.0 0.00 0.00 0.00 97 1015.7
20260508075459 13 195 0.0 0.0 0.00 0.00 0.00 97 1015.8
20260508074957 13 195 0.0 0.0 0.00 0.00 0.00 97 1015.3
20260508074455 13 195 0.0 0.0 0.00 0.00 0.00 96 1015.6
20260508073951 13 196 0.0 0.0 0.00 0.00 0.00 96 1015.4
20260508073449 13 196 0.0 0.0 0.00 0.00 0.00 96 1015.3
20260508072946 13 195 0.0 0.0 0.00 0.00 0.00 96 1015.5
20260508072442 13 196 0.0 0.0 0.00 0.00 0.00 96 1015.4
20260508071939 13 195 0.0 0.0 0.00 0.00 0.00 96 1015.4
20260508071437 13 195 0.0 0.0 0.00 0.00 0.00 96 1015.3
20260508070935 14 195 0.0 0.0 0.00 0.00 0.00 95 1015.5
20260508070432 14 195 0.0 0.0 0.00 0.00 0.00 93 1015.4
20260508065930 14 195 0.0 0.0 0.00 0.00 0.00 92 1015.4
20260508065428 14 195 0.0 0.0 0.00 0.00 0.00 92 1015.4
20260508064926 14 194 0.0 0.0 0.00 0.00 0.00 92 1015.1
20260508064423 15 196 0.0 0.0 0.00 0.00 0.00 91 1015.2
20260508063920 15 196 0.0 0.0 0.00 0.00 0.00 92 1015.2
20260508063418 15 196 0.0 0.0 0.00 0.00 0.00 91 1015.4
20260508062915 15 196 0.0 0.0 0.00 0.00 0.00 93 1015.1
20260508062413 15 196 0.0 0.0 0.00 0.00 0.00 92 1015.3
20260508061909 15 197 0.0 0.0 0.00 0.00 0.00 94 1015.2
20260508061407 15 197 0.0 0.0 0.00 0.00 0.00 94 1015.3
20260508060903 15 197 0.0 0.0 0.00 0.00 0.00 94 1015.3
20260508060401 15 197 0.0 0.0 0.00 0.00 0.00 94 1015.5
20260508055901 15 197 0.0 0.0 0.00 0.00 0.00 94 1015.3
20260508055359 15 197 0.0 0.0 0.00 0.00 0.00 94 1015.3
20260508054855 15 197 0.0 0.0 0.00 0.00 0.00 93 1015.3
20260508054352 15 196 0.0 0.0 0.00 0.00 0.00 94 1015.3
20260508053849 15 197 0.0 0.0 0.00 0.00 0.00 94 1015.5
20260508053347 15 197 0.0 0.0 0.00 0.00 0.00 93 1015.2
20260508052844 15 197 0.0 0.0 0.00 0.00 0.00 92 1015.2
20260508052342 15 197 0.0 0.0 0.00 0.00 0.00 92 1015.4
20260508051837 16 197 0.0 0.0 0.00 0.00 0.00 90 1015.4
20260508051333 16 196 0.0 0.0 0.00 0.00 0.00 90 1015.2
20260508050829 16 196 0.0 0.0 0.00 0.00 0.00 89 1015.1
20260508050327 16 201 0.0 0.0 0.00 0.00 0.00 90 1015.2
20260508045822 16 254 0.0 0.0 0.00 0.00 0.00 91 1015.2
20260508045320 16 219 0.0 0.0 0.00 0.00 0.00 91 1015.3
20260508044818 16 232 0.0 0.0 0.00 0.00 0.00 92 1015.2
20260508044314 16 200 0.0 0.0 0.00 0.00 0.00 92 1015.2
20260508043810 16 201 0.0 0.0 0.00 0.00 0.00 92 1015.0